This is the latest recevied weather packets stored in our database for station/object N5JXS. If no packets are shown the sender has not sent any weather packets the latest 10 day(s).
| Time | Temp. | Humidity | Pressure | Rain* | Wind** | Luminosity | Snow |
|---|---|---|---|---|---|---|---|
| 1788398919 | 22.78° C | 30% | 1022.4 hPa | 0 mm | - | 0 W/m² | - |
| 1788398613 | 23.33° C | 30% | 1022.1 hPa | 0 mm | - | 1 W/m² | - |
| 1788398313 | 23.33° C | 29% | 1022.2 hPa | 0 mm | - | 3 W/m² | - |
| 1788398013 | 23.33° C | 29% | 1022.4 hPa | 0 mm | - | 3 W/m² | - |
| 1788397708 | 23.89° C | 29% | 1022.5 hPa | 0 mm | - | 4 W/m² | - |
| 1788397403 | 23.89° C | 29% | 1022.4 hPa | 0 mm | - | 7 W/m² | - |
| 1788397101 | 23.89° C | 28% | 1022.4 hPa | 0 mm | - | 9 W/m² | - |
| 1788396797 | 23.89° C | 27% | 1022.2 hPa | 0 mm | - | 12 W/m² | - |
| 1788396493 | 24.44° C | 27% | 1022.5 hPa | 0 mm | - | 10 W/m² | - |
| 1788396188 | 24.44° C | 27% | 1022.1 hPa | 0 mm | - | 12 W/m² | - |
| 1788395883 | 25° C | 26% | 1022.5 hPa | 0 mm | - | 13 W/m² | - |
| 1788395578 | 25.56° C | 26% | 1022.2 hPa | 0 mm | - | 13 W/m² | - |
| 1788395273 | 25.56° C | 25% | 1022.2 hPa | 0 mm | - | 16 W/m² | - |
| 1788394967 | 26.67° C | 25% | 1022.4 hPa | 0 mm | - | 17 W/m² | - |
| 1788394663 | 26.67° C | 25% | 1022 hPa | 0 mm | - | 41 W/m² | - |
| 1788394362 | 26.67° C | 25% | 1021.9 hPa | 0 mm | - | 39 W/m² | - |
| 1788394057 | 26.67° C | 25% | 1022.1 hPa | 0 mm | - | 37 W/m² | - |
| 1788393757 | 26.67° C | 25% | 1022.2 hPa | 0 mm | - | 34 W/m² | - |
| 1788393455 | 26.11° C | 26% | 1022.2 hPa | 0 mm | - | 61 W/m² | - |
| 1788393151 | 25.56° C | 27% | 1022.2 hPa | 0 mm | - | 85 W/m² | - |
| 1788392851 | 25.56° C | 26% | 1022.4 hPa | 0 mm | - | 46 W/m² | - |
| 1788392550 | 26.11° C | 26% | 1022.4 hPa | 0 mm | - | 66 W/m² | - |
| 1788392249 | 26.11° C | 25% | 1022.4 hPa | 0 mm | - | 42 W/m² | - |
| 1788391944 | 26.11° C | 25% | 1022.2 hPa | 0 mm | - | 50 W/m² | - |
| 1788391643 | 26.11° C | 25% | 1022.7 hPa | 0 mm | - | 60 W/m² | - |
* Rain latest hour (hover to see other rain measurements)
** Current wind speed in m/s (hover to see current wind gust speed)